Regional Weather Roundup
Issued by NWS

Home | Current Version | Previous Version | Graphics & Text | Print | Product List | Glossary On
Versions: 1 2 3 4 5 6 7 8 9 10 11 12 13 14 15 16 17 18 19 20 21 22 23 24 25 26 27 28 29 30 31 32 33 34 35 36 37 38 39 40 41 42 43 44 45 46 47 48 49 50
000
ASUS45 KTFX 292210
RWRMT
MONTANA REGIONAL WEATHER ROUNDUP
NATIONAL WEATHER SERVICE GREAT FALLS MT
400 PM MDT WED JUL 29 2015

NOTE: "FAIR" INDICATES FEW OR NO CLOUDS BELOW 12000 FEET WITH NO
SIGNIFICANT WEATHER AND/OR OBSTRUCTIONS TO VISIBILITY.

MTZ001>007-043-292300-
WEST OF THE DIVIDE

CITY           SKY/WX    TMP DP  RH WIND       PRES   REMARKS
KALISPELL      MOCLDY    81  39  22 S12       30.15F
MISSOULA         N/A     79  38  22 MISG      30.21F
BUTTE          SUNNY     73  35  25 NW12      30.31F
MULLAN PASS    SUNNY     69  36  29 VRB5      30.36F
DEER LODGE       N/A     73  41  31 NE5       30.31F
EUREKA           N/A     84  34  16 SW10G21   30.14S
HAMILTON         N/A     79  34  19 N5        30.22F
LIBBY            N/A     84  36  17 W7G18     30.15F
PLAINS           N/A     87  40  19 CALM      30.15F
THOMPSON FALLS   N/A     86  44  22 W10       30.17F
$$

MTZ008-052>055-292300-
SOUTHWEST MONTANA

CITY           SKY/WX    TMP DP  RH WIND       PRES   REMARKS
BOZEMAN        SUNNY     77  37  23 NW12      30.27F
DILLON         SUNNY     77  42  28 S8G21     30.28F
W YELLOWSTONE  SUNNY     68  32  26 NW8G17    30.39F
TWIN BRIDGES     N/A     76  36  23 SE2       30.25F
$$

MTZ009-010-012-014-046-048-049-054-292300-
EAST SLOPES AND CENTRAL MONTANA

CITY           SKY/WX    TMP DP  RH WIND       PRES   REMARKS
CUT BANK       SUNNY     82  36  19 W16       30.14F
GREAT FALLS    SUNNY     81  34  18 W13       30.17F
MALMSTROM AFB  SUNNY     80  34  19 W14G20    30.17F
HELENA         SUNNY     81  35  19 W16G23    30.21F
CONRAD           N/A     81  41  24 W9        30.16F
$$

MTZ011-013-016-021-045-047-050-051-292300-
NORTH CENTRAL MONTANA

CITY           SKY/WX    TMP DP  RH WIND       PRES   REMARKS
HAVRE          SUNNY     80  41  24 SW14G25   30.09F
LEWISTOWN      MOSUNNY   78  37  22 W12       30.21F
CHINOOK          N/A     81  43  26 SW13      30.09F
FORT BENTON      N/A     82  37  20 W9G18     30.12F
$$

MTZ017>020-022>027-061-062-292300-
NORTHEAST MONTANA

CITY           SKY/WX    TMP DP  RH WIND       PRES   REMARKS
GLASGOW        SUNNY     82  43  25 W9G20     30.09
JORDAN           N/A     80  39  23 W9G18     30.13F
SIDNEY         SUNNY    N/A N/A N/A W16G25    30.07S
WOLF POINT     MOSUNNY   83  42  23 W14G25    30.08F
MALTA            N/A     82  48  30 SW12      30.06F
PLENTYWOOD       N/A     79  45  29 NW23G29   30.05S
POPLAR           N/A     79  46  31 W13       30.08S
SCOBEY           N/A     78  46  32 NW17      30.07F
$$

MTZ028>42-056>058-292300-
SOUTHCENTRAL AND SOUTHEAST MONTANA

CITY           SKY/WX    TMP DP  RH WIND       PRES   REMARKS
BAKER          MOSUNNY   81  38  21 W17G26    30.15F
BILLINGS       MOSUNNY   81  36  19 S13G20    30.18F
LIVINGSTON     SUNNY     79  35  20 W14G26    30.25S
MILES CITY     MOSUNNY   82  40  22 W12G23    30.14F
EKALAKA          N/A     79  36  21 W14       30.15F
FORSYTH          N/A     81  36  19 W9G18     30.14F
LAUREL           N/A     82  37  20 SE6       30.16F
ROUNDUP          N/A     80  34  19 SW13      30.08F
$$

REGIONAL REPORTS...DAKOTAS

CITY           SKY/WX    TMP DP  RH WIND       PRES   REMARKS
WILLISTON      SUNNY     83  45  26 W25G32    30.05R
MINOT          SUNNY     82  49  31 W17G30    29.97S
DICKINSON      MOSUNNY   78  44  29 W17       30.09S
BEACH          FAIR      81  41  24 NW22      30.13S
CROSBY         FAIR      77  50  38 W17G30    30.02S
BISMARCK       MOSUNNY   83  48  29 W17G28    30.04F
GRAND FORKS    MOSUNNY   80  53  39 NW23G32   29.83R
FARGO          MOSUNNY   81  54  39 W26G35    29.91R
BUFFALO SD       N/A     82  37  20 W23G29    30.10F
RAPID CITY     SUNNY     82  43  25 CALM      30.19F
$$

REGIONAL REPORTS...WYOMING/IDAHO/WASHINGTON

CITY           SKY/WX    TMP DP  RH WIND       PRES   REMARKS
GILLETTE       SUNNY     79  30  16 W8        30.24F
SHERIDAN       SUNNY     81  34  18 VRB3      30.22F
BUFFALO WY     SUNNY     78  33  19 VRB3      30.27F
CODY           SUNNY     79  32  18 E10       30.25F
YELLOWSTONE LA   N/A     65  36  34 VRB3      30.47S
IDAHO FALLS    SUNNY     78  32  18 W7        30.31F
SALMON         SUNNY     77  43  29 NW7       30.22F
BOISE          SUNNY     88  32  13 N8        30.18F
SPOKANE        MOSUNNY   86  32  14 W16       30.17F
$$

REGIONAL REPORTS...ALBERTA

CITY           SKY/WX    TMP DP  RH WIND       PRES   REMARKS
EDMONTON       TSTM      59  50  72 W18G28    30.07R
CALGARY        MOSUNNY   70  45  40 W18G25    30.12F
LETHBRIDGE     PTSUNNY   82  37  20 W21G33    30.07F
MEDICINE HAT   PTSUNNY   82  41  23 W13G18    30.05F
WATERTON GATE    N/A     73  37  27 W14G26      N/A
CARDSTON         N/A     79  36  21 W14G24      N/A
MILK RIVER       N/A     82  37  20 W18G28      N/A
ONEFOUR          N/A     79  39  24 W18G26      N/A
$$

REGIONAL REPORTS...SASKATCHEWAN

CITY           SKY/WX    TMP DP  RH WIND       PRES   REMARKS
SWIFT CURRENT  MOSUNNY   75  48  38 W13G20    30.05F
REGINA         MOSUNNY   77  50  38 NW25G32   29.99S
SASKATOON      MOSUNNY   77  48  36 NW22      29.96S
CYPRESS HILLS    N/A     72  43  35 W9G17       N/A
VAL MARIE        N/A     79  43  27 W14G20      N/A
ROCKGLEN         N/A     75  46  35 NW14G20     N/A
ASSINIBOIA       N/A     75  48  38 W10         N/A
$$



USA.gov is the U.S. government's official web portal to all federal, state and local government web resources and services.